Find ARSAT-1

NORAD ID: 40272 Int'l Des: 2014-062 Owner: ARSAT Country: AR operational
HEOCIRCULARGSOGEO

現在のビュー

3D地球を読み込み中...

ARSAT-1について

説明を読み込み中...

次回通過

Passes for default location (London). Set your location on the main map for personalized predictions.

高度履歴

Loading altitude history...

軌道要素

1 40272U 14062B 26149.49078123 -.00000249 00000-0 00000+0 0 9999
2 40272 0.0227 25.6105 0001907 38.0835 288.1909 1.00270787 42433
Epoch: May 29, 2026 • Age: 16 hours

現在のステータス

高度 35794.3 km
速度 3.07 km/s
衛星直下点 -0.03°S, 71.82°W
打ち上げ日 Oct 16, 2014
運用期間 11.6 years
タイプ other

技術仕様

分類 Payload
質量 2983.00 kg
乾燥質量 2000.00 kg
総質量 2983.00 kg
長さ 3.10 m
直径 2.20 m
スパン 16.30 m
形状 Box + 2 panels
製造者 INVAP
バスタイプ ARSAT-Bus
フェーズステータス In Orbit
所有者/国 ARSAT/AR

Most Searched